Time,TemperatureF,DewpointF,PressureIn,WindDirection,WindDirectionDegrees,WindSpeedMPH,WindSpeedGustMPH,Humidity,HourlyPrecipIn,Conditions,Clouds,dailyrainin,SoftwareType,DateUTC
2014-01-20 00:02:00,32.8,23.8,29.69,ENE,72,2.0,15.0,69,0.00,,RMK 146.475 MHz QRV !SN!,0.00,WUHU216DAVISVP2,2014-01-20 05:02:00,
2014-01-20 00:07:00,32.8,23.8,29.69,North,7,3.0,15.0,69,0.00,,RMK 146.475 MHz QRV !SN!,0.00,WUHU216DAVISVP2,2014-01-20 05:07:00,
2014-01-20 00:13:00,32.7,23.6,29.69,East,83,2.0,15.0,69,0.00,,RMK 146.475 MHz QRV !SN!,0.00,WUHU216DAVISVP2,2014-01-20 05:13:00,
2014-01-20 00:18:00,32.7,23.7,29.68,North,11,7.0,14.0,69,0.00,,RMK 146.475 MHz QRV !SN!,0.00,WUHU216DAVISVP2,2014-01-20 05:18:00,
2014-01-20 00:24:00,32.7,23.7,29.68,NE,46,3.0,14.0,69,0.00,,RMK 146.475 MHz QRV !SN!,0.00,WUHU216DAVISVP2,2014-01-20 05:24:00,
2014-01-20 00:29:00,32.7,23.7,29.68,ENE,77,7.0,14.0,69,0.00,,RMK 146.475 MHz QRV !SN!,0.00,WUHU216DAVISVP2,2014-01-20 05:29:00,
2014-01-20 00:34:00,32.7,24.1,29.68,ESE,115,2.0,12.0,70,0.00,,RMK 146.475 MHz QRV !SN!,0.00,WUHU216DAVISVP2,2014-01-20 05:34:00,
2014-01-20 00:40:00,32.6,24.0,29.67,East,80,12.0,14.0,70,0.00,,RMK 146.475 MHz QRV !SN!,0.00,WUHU216DAVISVP2,2014-01-20 05:40:00,
2014-01-20 00:45:00,32.5,23.9,29.67,North,349,6.0,14.0,70,0.00,,RMK 146.475 MHz QRV !SN!,0.00,WUHU216DAVISVP2,2014-01-20 05:45:00,
2014-01-20 00:51:00,32.6,24.0,29.67,South,191,1.0,13.0,70,0.00,,RMK 146.475 MHz QRV !SN!,0.00,WUHU216DAVISVP2,2014-01-20 05:51:00,
2014-01-20 00:56:00,32.5,23.9,29.67,East,93,4.0,13.0,70,0.00,,RMK 146.475 MHz QRV !SN!,0.00,WUHU216DAVISVP2,2014-01-20 05:56:00,
2014-01-20 01:01:00,32.5,23.8,29.67,WNW,287,3.0,13.0,70,0.00,,RMK 146.475 MHz QRV !SN!,0.00,WUHU216DAVISVP2,2014-01-20 06:01:00,
2014-01-20 01:07:00,32.5,23.9,29.66,NNE,29,4.0,12.0,70,0.00,,RMK 146.475 MHz QRV !SN!,0.00,WUHU216DAVISVP2,2014-01-20 06:07:00,
2014-01-20 01:12:00,32.5,23.9,29.67,East,79,5.0,11.0,70,0.00,,RMK 146.475 MHz QRV !SN!,0.00,WUHU216DAVISVP2,2014-01-20 06:12:00,
2014-01-20 01:18:00,32.5,24.2,29.66,NNW,331,4.0,9.0,71,0.00,,RMK 146.475 MHz QRV !SN!,0.00,WUHU216DAVISVP2,2014-01-20 06:18:00,
2014-01-20 01:23:00,32.5,24.2,29.66,NE,46,4.0,9.0,71,0.00,,RMK 146.475 MHz QRV !SN!,0.00,WUHU216DAVISVP2,2014-01-20 06:23:00,
2014-01-20 01:28:00,32.5,24.1,29.66,NNW,329,6.0,11.0,71,0.00,,RMK 146.475 MHz QRV !SN!,0.00,WUHU216DAVISVP2,2014-01-20 06:28:00,
2014-01-20 01:34:00,32.6,24.3,29.66,ENE,64,2.0,13.0,71,0.00,,RMK 146.475 MHz QRV !SN!,0.00,WUHU216DAVISVP2,2014-01-20 06:34:00,
2014-01-20 01:39:00,32.6,24.3,29.65,ESE,113,1.0,13.0,71,0.00,,RMK 146.475 MHz QRV !SN!,0.00,WUHU216DAVISVP2,2014-01-20 06:39:00,
2014-01-20 01:45:00,32.7,24.4,29.65,ENE,72,5.0,13.0,71,0.00,,RMK 146.475 MHz QRV !SN!,0.00,WUHU216DAVISVP2,2014-01-20 06:45:00,
2014-01-20 01:50:00,32.7,24.3,29.65,East,97,3.0,11.0,71,0.00,,RMK 146.475 MHz QRV !SN!,0.00,WUHU216DAVISVP2,2014-01-20 06:50:00,
2014-01-20 01:55:00,32.8,24.5,29.65,NE,51,2.0,11.0,71,0.00,,RMK 146.475 MHz QRV !SN!,0.00,WUHU216DAVISVP2,2014-01-20 06:55:00,
2014-01-20 02:01:00,32.8,24.5,29.65,East,79,1.0,10.0,71,0.00,,RMK 146.475 MHz QRV !SN!,0.00,WUHU216DAVISVP2,2014-01-20 07:01:00,
2014-01-20 02:06:00,32.9,24.6,29.65,North,7,5.0,10.0,71,0.00,,RMK 146.475 MHz QRV !SN!,0.00,WUHU216DAVISVP2,2014-01-20 07:06:00,
2014-01-20 02:12:00,33.1,24.4,29.65,East,86,3.0,16.0,70,0.00,,RMK 146.475 MHz QRV !SN!,0.00,WUHU216DAVISVP2,2014-01-20 07:12:00,
2014-01-20 02:17:00,33.1,24.4,29.65,NE,46,0.0,16.0,70,0.00,,RMK 146.475 MHz QRV !SN!,0.00,WUHU216DAVISVP2,2014-01-20 07:17:00,
2014-01-20 02:22:00,33.1,24.4,29.65,NE,41,2.0,14.0,70,0.00,,RMK 146.475 MHz QRV !SN!,0.00,WUHU216DAVISVP2,2014-01-20 07:22:00,
2014-01-20 02:28:00,33.1,24.8,29.65,East,100,2.0,14.0,71,0.00,,RMK 146.475 MHz QRV !SN!,0.00,WUHU216DAVISVP2,2014-01-20 07:28:00,
2014-01-20 02:33:00,33.1,24.8,29.65,NNW,330,5.0,13.0,71,0.00,,RMK 146.475 MHz QRV !SN!,0.00,WUHU216DAVISVP2,2014-01-20 07:33:00,
2014-01-20 02:39:00,33.2,24.5,29.65,ENE,67,5.0,13.0,70,0.00,,RMK 146.475 MHz QRV !SN!,0.00,WUHU216DAVISVP2,2014-01-20 07:39:00,
2014-01-20 02:44:00,33.2,24.5,29.64,NNE,19,6.0,15.0,70,0.00,,RMK 146.475 MHz QRV !SN!,0.00,WUHU216DAVISVP2,2014-01-20 07:44:00,
2014-01-20 02:49:00,33.3,24.6,29.65,North,356,4.0,15.0,70,0.00,,RMK 146.475 MHz QRV !SN!,0.00,WUHU216DAVISVP2,2014-01-20 07:49:00,
2014-01-20 02:55:00,33.4,24.7,29.65,NNW,333,5.0,14.0,70,0.00,,RMK 146.475 MHz QRV !SN!,0.00,WUHU216DAVISVP2,2014-01-20 07:55:00,
2014-01-20 03:08:00,33.7,24.7,29.64,ENE,77,3.0,12.0,69,0.00,,RMK 146.475 MHz QRV !SN!,0.00,WUHU216DAVISVP2,2014-01-20 08:08:00,
2014-01-20 03:13:00,33.7,25.0,29.64,NE,39,6.0,12.0,70,0.00,,RMK 146.475 MHz QRV !SN!,0.00,WUHU216DAVISVP2,2014-01-20 08:13:00,
2014-01-20 03:18:00,33.7,25.0,29.64,North,6,6.0,12.0,70,0.00,,RMK 146.475 MHz QRV !SN!,0.00,WUHU216DAVISVP2,2014-01-20 08:18:00,
2014-01-20 03:23:00,33.7,25.0,29.64,ENE,65,4.0,12.0,70,0.00,,RMK 146.475 MHz QRV !SN!,0.00,WUHU216DAVISVP2,2014-01-20 08:23:00,
2014-01-20 03:28:00,33.8,25.1,29.64,SE,127,1.0,11.0,70,0.00,,RMK 146.475 MHz QRV !SN!,0.00,WUHU216DAVISVP2,2014-01-20 08:28:00,
2014-01-20 03:33:00,33.8,25.1,29.64,ESE,108,1.0,12.0,70,0.00,,RMK 146.475 MHz QRV !SN!,0.00,WUHU216DAVISVP2,2014-01-20 08:33:00,
2014-01-20 03:38:00,33.9,25.2,29.65,East,89,1.0,12.0,70,0.00,,RMK 146.475 MHz QRV !SN!,0.00,WUHU216DAVISVP2,2014-01-20 08:38:00,
2014-01-20 03:43:00,34.1,25.4,29.65,ENE,69,2.0,12.0,70,0.00,,RMK 146.475 MHz QRV !SN!,0.00,WUHU216DAVISVP2,2014-01-20 08:43:00,
2014-01-20 03:48:00,34.3,25.6,29.64,NE,41,8.0,12.0,70,0.00,,RMK 146.475 MHz QRV !SN!,0.00,WUHU216DAVISVP2,2014-01-20 08:48:00,
2014-01-20 03:53:00,34.4,25.3,29.65,SE,131,2.0,13.0,69,0.00,,RMK 146.475 MHz QRV !SN!,0.00,WUHU216DAVISVP2,2014-01-20 08:53:00,
2014-01-20 03:58:00,34.6,25.5,29.65,ESE,105,9.0,20.0,69,0.00,,RMK 146.475 MHz QRV !SN!,0.00,WUHU216DAVISVP2,2014-01-20 08:58:00,
2014-01-20 04:03:00,34.7,25.6,29.65,ENE,60,1.0,20.0,69,0.00,,RMK 146.475 MHz QRV !SN!,0.00,WUHU216DAVISVP2,2014-01-20 09:03:00,
2014-01-20 04:08:00,34.7,25.6,29.64,NW,322,3.0,19.0,69,0.00,,RMK 146.475 MHz QRV !SN!,0.00,WUHU216DAVISVP2,2014-01-20 09:08:00,
2014-01-20 04:13:00,34.6,25.5,29.65,East,88,6.0,19.0,69,0.00,,RMK 146.475 MHz QRV !SN!,0.00,WUHU216DAVISVP2,2014-01-20 09:13:00,
2014-01-20 04:18:00,34.5,25.8,29.65,ENE,74,6.0,13.0,70,0.00,,RMK 146.475 MHz QRV !SN!,0.00,WUHU216DAVISVP2,2014-01-20 09:18:00,
2014-01-20 04:23:00,34.5,25.7,29.65,ENE,65,4.0,13.0,70,0.00,,RMK 146.475 MHz QRV !SN!,0.00,WUHU216DAVISVP2,2014-01-20 09:23:00,
2014-01-20 04:28:00,34.4,25.7,29.65,ENE,75,3.0,12.0,70,0.00,,RMK 146.475 MHz QRV !SN!,0.00,WUHU216DAVISVP2,2014-01-20 09:28:00,
2014-01-20 04:33:00,34.4,25.7,29.65,ESE,110,0.0,12.0,70,0.00,,RMK 146.475 MHz QRV !SN!,0.00,WUHU216DAVISVP2,2014-01-20 09:33:00,
2014-01-20 04:38:00,34.4,25.7,29.65,NE,56,7.0,12.0,70,0.00,,RMK 146.475 MHz QRV !SN!,0.00,WUHU216DAVISVP2,2014-01-20 09:38:00,
2014-01-20 04:43:00,34.4,25.6,29.65,SSE,166,2.0,12.0,70,0.00,,RMK 146.475 MHz QRV !SN!,0.00,WUHU216DAVISVP2,2014-01-20 09:43:00,
2014-01-20 04:48:00,34.4,25.7,29.65,NNE,25,8.0,12.0,70,0.00,,RMK 146.475 MHz QRV !SN!,0.00,WUHU216DAVISVP2,2014-01-20 09:48:00,
2014-01-20 04:53:00,34.5,25.8,29.65,North,1,5.0,12.0,70,0.00,,RMK 146.475 MHz QRV !SN!,0.00,WUHU216DAVISVP2,2014-01-20 09:53:00,
2014-01-20 04:58:00,34.5,26.1,29.65,North,349,5.0,14.0,71,0.00,,RMK 146.475 MHz QRV !SN!,0.00,WUHU216DAVISVP2,2014-01-20 09:58:00,
2014-01-20 05:03:00,34.5,26.1,29.66,ENE,69,5.0,14.0,71,0.00,,RMK 146.475 MHz QRV !SN!,0.00,WUHU216DAVISVP2,2014-01-20 10:03:00,
2014-01-20 05:08:00,34.4,26.0,29.66,ENE,58,2.0,12.0,71,0.00,,RMK 146.475 MHz QRV !SN!,0.00,WUHU216DAVISVP2,2014-01-20 10:08:00,
2014-01-20 05:13:00,34.3,25.9,29.66,ESE,103,2.0,11.0,71,0.00,,RMK 146.475 MHz QRV !SN!,0.00,WUHU216DAVISVP2,2014-01-20 10:13:00,
2014-01-20 05:18:00,34.3,25.9,29.66,East,89,2.0,13.0,71,0.00,,RMK 146.475 MHz QRV !SN!,0.00,WUHU216DAVISVP2,2014-01-20 10:18:00,
2014-01-20 05:23:00,34.3,26.3,29.66,ESE,122,1.0,13.0,72,0.00,,RMK 146.475 MHz QRV !SN!,0.00,WUHU216DAVISVP2,2014-01-20 10:23:00,
2014-01-20 05:28:00,34.2,26.2,29.66,ENE,68,4.0,11.0,72,0.00,,RMK 146.475 MHz QRV !SN!,0.00,WUHU216DAVISVP2,2014-01-20 10:28:00,
2014-01-20 05:33:00,34.1,26.1,29.66,East,95,5.0,10.0,72,0.00,,RMK 146.475 MHz QRV !SN!,0.00,WUHU216DAVISVP2,2014-01-20 10:33:00,
2014-01-20 05:38:00,34.1,26.0,29.67,East,82,2.0,10.0,72,0.00,,RMK 146.475 MHz QRV !SN!,0.00,WUHU216DAVISVP2,2014-01-20 10:38:00,
2014-01-20 05:43:00,34.1,26.4,29.67,ENE,63,5.0,12.0,73,0.00,,RMK 146.475 MHz QRV !SN!,0.00,WUHU216DAVISVP2,2014-01-20 10:43:00,
2014-01-20 05:48:00,34.0,26.3,29.67,East,88,1.0,12.0,73,0.00,,RMK 146.475 MHz QRV !SN!,0.00,WUHU216DAVISVP2,2014-01-20 10:48:00,
2014-01-20 05:53:00,34.0,26.3,29.67,ESE,109,2.0,10.0,73,0.00,,RMK 146.475 MHz QRV !SN!,0.00,WUHU216DAVISVP2,2014-01-20 10:53:00,
2014-01-20 05:58:00,33.9,26.2,29.67,ENE,72,3.0,10.0,73,0.00,,RMK 146.475 MHz QRV !SN!,0.00,WUHU216DAVISVP2,2014-01-20 10:58:00,
2014-01-20 06:03:00,33.9,26.2,29.67,NE,45,4.0,10.0,73,0.00,,RMK 146.475 MHz QRV !SN!,0.00,WUHU216DAVISVP2,2014-01-20 11:03:00,
2014-01-20 06:08:00,33.9,26.5,29.67,East,83,3.0,10.0,74,0.00,,RMK 146.475 MHz QRV !SN!,0.00,WUHU216DAVISVP2,2014-01-20 11:08:00,
2014-01-20 06:13:00,33.9,26.5,29.67,ENE,72,4.0,10.0,74,0.00,,RMK 146.475 MHz QRV !SN!,0.00,WUHU216DAVISVP2,2014-01-20 11:13:00,
2014-01-20 06:18:00,33.8,26.8,29.67,SE,127,3.0,10.0,75,0.00,,RMK 146.475 MHz QRV !SN!,0.00,WUHU216DAVISVP2,2014-01-20 11:18:00,
2014-01-20 06:23:00,33.8,26.7,29.67,ENE,75,1.0,9.0,75,0.00,,RMK 146.475 MHz QRV !SN!,0.00,WUHU216DAVISVP2,2014-01-20 11:23:00,
2014-01-20 06:28:00,33.8,26.7,29.67,ENE,58,6.0,8.0,75,0.00,,RMK 146.475 MHz QRV !SN!,0.00,WUHU216DAVISVP2,2014-01-20 11:28:00,
2014-01-20 06:33:00,33.7,26.7,29.67,ENE,65,3.0,9.0,75,0.00,,RMK 146.475 MHz QRV !SN!,0.00,WUHU216DAVISVP2,2014-01-20 11:33:00,
2014-01-20 06:38:00,33.7,27.0,29.67,NNW,335,5.0,10.0,76,0.00,,RMK 146.475 MHz QRV !SN!,0.00,WUHU216DAVISVP2,2014-01-20 11:38:00,
2014-01-20 06:43:00,33.7,27.0,29.68,East,86,4.0,10.0,76,0.00,,RMK 146.475 MHz QRV !SN!,0.00,WUHU216DAVISVP2,2014-01-20 11:43:00,
2014-01-20 06:48:00,33.7,27.3,29.68,ENE,70,3.0,10.0,77,0.00,,RMK 146.475 MHz QRV !SN!,0.00,WUHU216DAVISVP2,2014-01-20 11:48:00,
2014-01-20 06:53:00,33.6,27.2,29.68,ENE,77,3.0,10.0,77,0.00,,RMK 146.475 MHz QRV !SN!,0.00,WUHU216DAVISVP2,2014-01-20 11:53:00,
2014-01-20 06:58:00,33.6,27.2,29.69,NE,34,3.0,9.0,77,0.00,,RMK 146.475 MHz QRV !SN!,0.00,WUHU216DAVISVP2,2014-01-20 11:58:00,
2014-01-20 07:03:00,33.6,27.2,29.69,ENE,62,3.0,7.0,77,0.00,,RMK 146.475 MHz QRV !SN!,0.00,WUHU216DAVISVP2,2014-01-20 12:03:00,
2014-01-20 07:08:00,33.6,27.2,29.70,East,101,1.0,6.0,77,0.00,,RMK 146.475 MHz QRV !SN!,0.00,WUHU216DAVISVP2,2014-01-20 12:08:00,
2014-01-20 07:13:00,33.6,27.5,29.70,ESE,109,0.0,6.0,78,0.00,,RMK 146.475 MHz QRV !SN!,0.00,WUHU216DAVISVP2,2014-01-20 12:13:00,
2014-01-20 07:18:00,33.7,27.6,29.69,ENE,70,4.0,7.0,78,0.00,,RMK 146.475 MHz QRV !SN!,0.00,WUHU216DAVISVP2,2014-01-20 12:18:00,
2014-01-20 07:23:00,33.7,27.6,29.70,SSE,167,1.0,7.0,78,0.00,,RMK 146.475 MHz QRV !SN!,0.00,WUHU216DAVISVP2,2014-01-20 12:23:00,
2014-01-20 07:28:00,33.7,27.9,29.70,ENE,62,4.0,7.0,79,0.00,,RMK 146.475 MHz QRV !SN!,0.00,WUHU216DAVISVP2,2014-01-20 12:28:00,
2014-01-20 07:33:00,33.6,27.8,29.70,SE,129,4.0,12.0,79,0.00,,RMK 146.475 MHz QRV !SN!,0.00,WUHU216DAVISVP2,2014-01-20 12:33:00,
2014-01-20 07:38:00,33.5,28.0,29.71,ENE,68,8.0,13.0,80,0.00,,RMK 146.475 MHz QRV !SN!,0.00,WUHU216DAVISVP2,2014-01-20 12:38:00,
2014-01-20 07:43:00,33.1,28.2,29.71,SE,146,6.0,13.0,82,0.00,,RMK 146.475 MHz QRV !SN!,0.00,WUHU216DAVISVP2,2014-01-20 12:43:00,
2014-01-20 07:48:00,32.6,28.0,29.72,NNE,26,3.0,14.0,83,0.00,,RMK 146.475 MHz QRV !SN!,0.00,WUHU216DAVISVP2,2014-01-20 12:48:00,
2014-01-20 07:53:00,32.2,28.2,29.72,ESE,113,4.0,14.0,85,0.00,,RMK 146.475 MHz QRV !SN!,0.00,WUHU216DAVISVP2,2014-01-20 12:53:00,
2014-01-20 07:58:00,32.0,28.0,29.72,East,98,1.0,13.0,85,0.00,,RMK 146.475 MHz QRV !SN!,0.00,WUHU216DAVISVP2,2014-01-20 12:58:00,
2014-01-20 08:03:00,31.6,28.2,29.73,NE,56,3.0,13.0,87,0.00,,RMK 146.475 MHz QRV !SN!,0.00,WUHU216DAVISVP2,2014-01-20 13:03:00,
2014-01-20 08:08:00,31.2,28.0,29.73,NE,41,5.0,9.0,88,0.00,,RMK 146.475 MHz QRV !SN!,0.00,WUHU216DAVISVP2,2014-01-20 13:08:00,
2014-01-20 08:13:00,30.8,27.9,29.73,ENE,66,8.0,10.0,89,0.00,,RMK 146.475 MHz QRV !SN!,0.00,WUHU216DAVISVP2,2014-01-20 13:13:00,
2014-01-20 08:18:00,30.5,27.9,29.74,ENE,68,4.0,10.0,90,0.00,,RMK 146.475 MHz QRV !SN!,0.00,WUHU216DAVISVP2,2014-01-20 13:18:00,
2014-01-20 08:23:00,30.2,27.6,29.75,SE,135,1.0,10.0,90,0.00,,RMK 146.475 MHz QRV !SN!,0.00,WUHU216DAVISVP2,2014-01-20 13:23:00,
2014-01-20 08:28:00,30.1,27.7,29.75,South,190,2.0,10.0,91,0.00,,RMK 146.475 MHz QRV !SN!,0.00,WUHU216DAVISVP2,2014-01-20 13:28:00,
2014-01-20 08:33:00,30.0,28.0,29.75,SE,124,1.0,10.0,92,0.00,,RMK 146.475 MHz QRV !SN!,0.00,WUHU216DAVISVP2,2014-01-20 13:33:00,
2014-01-20 08:38:00,29.8,27.7,29.75,SE,145,2.0,10.0,92,0.00,,RMK 146.475 MHz QRV !SN!,0.00,WUHU216DAVISVP2,2014-01-20 13:38:00,
2014-01-20 08:43:00,29.8,27.7,29.75,ESE,111,1.0,10.0,92,0.00,,RMK 146.475 MHz QRV !SN!,0.00,WUHU216DAVISVP2,2014-01-20 13:43:00,
2014-01-20 08:48:00,29.7,27.9,29.75,East,95,1.0,10.0,93,0.00,,RMK 146.475 MHz QRV !SN!,0.00,WUHU216DAVISVP2,2014-01-20 13:48:00,
2014-01-20 08:53:00,29.7,27.9,29.75,NE,46,2.0,9.0,93,0.00,,RMK 146.475 MHz QRV !SN!,0.00,WUHU216DAVISVP2,2014-01-20 13:53:00,
2014-01-20 08:58:00,29.5,27.4,29.75,South,176,1.0,9.0,92,0.00,,RMK 146.475 MHz QRV !SN!,0.00,WUHU216DAVISVP2,2014-01-20 13:58:00,
2014-01-20 09:03:00,29.4,27.3,29.76,SSE,160,4.0,9.0,92,0.00,,RMK 146.475 MHz QRV !SN!,0.00,WUHU216DAVISVP2,2014-01-20 14:03:00,
2014-01-20 09:08:00,29.2,27.1,29.76,SE,139,1.0,12.0,92,0.00,,RMK 146.475 MHz QRV !SN!,0.00,WUHU216DAVISVP2,2014-01-20 14:08:00,
2014-01-20 09:13:00,29.1,27.0,29.77,SSE,147,2.0,12.0,92,0.00,,RMK 146.475 MHz QRV !SN!,0.00,WUHU216DAVISVP2,2014-01-20 14:13:00,
2014-01-20 09:18:00,29.0,26.7,29.77,SSE,153,1.0,12.0,91,0.00,,RMK 146.475 MHz QRV !SN!,0.00,WUHU216DAVISVP2,2014-01-20 14:18:00,
2014-01-20 09:23:00,29.0,26.7,29.78,SE,145,0.0,12.0,91,0.00,,RMK 146.475 MHz QRV !SN!,0.00,WUHU216DAVISVP2,2014-01-20 14:23:00,
2014-01-20 09:28:00,29.0,26.7,29.78,SSE,160,4.0,11.0,91,0.00,,RMK 146.475 MHz QRV !SN!,0.00,WUHU216DAVISVP2,2014-01-20 14:28:00,
2014-01-20 09:33:00,29.0,26.7,29.79,SSE,155,1.0,11.0,91,0.00,,RMK 146.475 MHz QRV !SN!,0.00,WUHU216DAVISVP2,2014-01-20 14:33:00,
2014-01-20 09:38:00,29.0,26.7,29.79,SSE,158,3.0,10.0,91,0.00,,RMK 146.475 MHz QRV !SN!,0.00,WUHU216DAVISVP2,2014-01-20 14:38:00,
2014-01-20 09:43:00,29.0,26.7,29.79,SE,131,1.0,10.0,91,0.00,,RMK 146.475 MHz QRV !SN!,0.00,WUHU216DAVISVP2,2014-01-20 14:43:00,
2014-01-20 09:48:00,28.6,26.3,29.80,SSW,201,2.0,10.0,91,0.00,,RMK 146.475 MHz QRV !SN!,0.00,WUHU216DAVISVP2,2014-01-20 14:48:00,
2014-01-20 09:53:00,27.9,25.3,29.80,South,183,3.0,10.0,90,0.00,,RMK 146.475 MHz QRV !SN!,0.00,WUHU216DAVISVP2,2014-01-20 14:53:00,
2014-01-20 09:58:00,27.1,24.6,29.80,South,175,2.0,10.0,90,0.00,,RMK 146.475 MHz QRV !SN!,0.00,WUHU216DAVISVP2,2014-01-20 14:58:00,
2014-01-20 10:03:00,26.6,24.3,29.81,SSE,167,3.0,10.0,91,0.00,,RMK 146.475 MHz QRV !SN!,0.00,WUHU216DAVISVP2,2014-01-20 15:03:00,
2014-01-20 10:08:00,26.3,24.0,29.81,SSE,155,1.0,9.0,91,0.00,,RMK 146.475 MHz QRV !SN!,0.00,WUHU216DAVISVP2,2014-01-20 15:08:00,
2014-01-20 10:13:00,26.2,23.9,29.82,SSW,211,2.0,8.0,91,0.00,,RMK 146.475 MHz QRV !SN!,0.00,WUHU216DAVISVP2,2014-01-20 15:13:00,
2014-01-20 10:18:00,26.0,23.7,29.83,South,179,2.0,8.0,91,0.00,,RMK 146.475 MHz QRV !SN!,0.00,WUHU216DAVISVP2,2014-01-20 15:18:00,
2014-01-20 10:23:00,25.8,23.5,29.83,SW,224,4.0,7.0,91,0.00,,RMK 146.475 MHz QRV !SN!,0.00,WUHU216DAVISVP2,2014-01-20 15:23:00,
2014-01-20 10:28:00,25.6,23.1,29.83,SSE,163,1.0,9.0,90,0.00,,RMK 146.475 MHz QRV !SN!,0.00,WUHU216DAVISVP2,2014-01-20 15:28:00,
2014-01-20 10:33:00,25.4,22.9,29.84,SSE,155,1.0,9.0,90,0.00,,RMK 146.475 MHz QRV !SN!,0.00,WUHU216DAVISVP2,2014-01-20 15:33:00,
2014-01-20 10:38:00,25.5,23.2,29.84,SSE,159,1.0,9.0,91,0.00,,RMK 146.475 MHz QRV !SN!,0.00,WUHU216DAVISVP2,2014-01-20 15:38:00,
2014-01-20 10:43:00,25.4,23.1,29.84,South,177,2.0,9.0,91,0.00,,RMK 146.475 MHz QRV !SN!,0.00,WUHU216DAVISVP2,2014-01-20 15:43:00,
2014-01-20 10:48:00,25.3,23.0,29.84,SSE,160,2.0,9.0,91,0.00,,RMK 146.475 MHz QRV !SN!,0.00,WUHU216DAVISVP2,2014-01-20 15:48:00,
2014-01-20 10:53:00,25.3,23.0,29.84,SSE,159,2.0,9.0,91,0.00,,RMK 146.475 MHz QRV !SN!,0.00,WUHU216DAVISVP2,2014-01-20 15:53:00,
2014-01-20 10:58:00,25.1,22.8,29.84,SSE,158,0.0,9.0,91,0.00,,RMK 146.475 MHz QRV !SN!,0.00,WUHU216DAVISVP2,2014-01-20 15:58:00,
2014-01-20 11:03:00,25.3,23.3,29.84,SSE,165,0.0,6.0,92,0.00,,RMK 146.475 MHz QRV !SN!,0.00,WUHU216DAVISVP2,2014-01-20 16:03:00,
2014-01-20 11:08:00,25.3,23.3,29.85,South,188,0.0,6.0,92,0.00,,RMK 146.475 MHz QRV !SN!,0.00,WUHU216DAVISVP2,2014-01-20 16:08:00,
2014-01-20 11:13:00,25.3,23.3,29.85,SE,134,0.0,6.0,92,0.00,,RMK 146.475 MHz QRV !SN!,0.00,WUHU216DAVISVP2,2014-01-20 16:13:00,
2014-01-20 11:18:00,25.3,23.3,29.85,ESE,113,0.0,5.0,92,0.00,,RMK 146.475 MHz QRV !SN!,0.00,WUHU216DAVISVP2,2014-01-20 16:18:00,
2014-01-20 11:23:00,25.4,23.4,29.86,SSE,156,0.0,5.0,92,0.00,,RMK 146.475 MHz QRV !SN!,0.00,WUHU216DAVISVP2,2014-01-20 16:23:00,
2014-01-20 11:28:00,25.4,23.4,29.85,SE,142,1.0,5.0,92,0.00,,RMK 146.475 MHz QRV !SN!,0.00,WUHU216DAVISVP2,2014-01-20 16:28:00,
2014-01-20 11:33:00,25.4,23.4,29.86,ESE,105,1.0,5.0,92,0.00,,RMK 146.475 MHz QRV !SN!,0.00,WUHU216DAVISVP2,2014-01-20 16:33:00,
2014-01-20 11:38:00,25.3,23.3,29.86,South,188,2.0,6.0,92,0.00,,RMK 146.475 MHz QRV !SN!,0.00,WUHU216DAVISVP2,2014-01-20 16:38:00,
2014-01-20 11:43:00,25.2,23.2,29.86,SSW,200,3.0,6.0,92,0.00,,RMK 146.475 MHz QRV !SN!,0.00,WUHU216DAVISVP2,2014-01-20 16:43:00,
2014-01-20 11:48:00,25.0,23.0,29.86,SSE,153,1.0,9.0,92,0.00,,RMK 146.475 MHz QRV !SN!,0.00,WUHU216DAVISVP2,2014-01-20 16:48:00,
2014-01-20 11:53:00,25.0,23.0,29.85,SSW,200,3.0,9.0,92,0.00,,RMK 146.475 MHz QRV !SN!,0.00,WUHU216DAVISVP2,2014-01-20 16:53:00,
2014-01-20 11:58:00,24.9,22.6,29.86,SSW,197,8.0,11.0,91,0.00,,RMK 146.475 MHz QRV !SN!,0.00,WUHU216DAVISVP2,2014-01-20 16:58:00,
2014-01-20 12:03:00,24.8,22.5,29.86,South,174,3.0,11.0,91,0.00,,RMK 146.475 MHz QRV !SN!,0.00,WUHU216DAVISVP2,2014-01-20 17:03:00,
2014-01-20 12:08:00,24.7,22.4,29.86,ESE,122,0.0,11.0,91,0.00,,RMK 146.475 MHz QRV !SN!,0.00,WUHU216DAVISVP2,2014-01-20 17:08:00,
2014-01-20 12:13:00,24.7,22.4,29.86,SSE,155,0.0,11.0,91,0.00,,RMK 146.475 MHz QRV !SN!,0.00,WUHU216DAVISVP2,2014-01-20 17:13:00,
2014-01-20 12:18:00,24.6,22.3,29.86,SSE,163,1.0,6.0,91,0.00,,RMK 146.475 MHz QRV !SN!,0.00,WUHU216DAVISVP2,2014-01-20 17:18:00,
2014-01-20 12:23:00,24.4,22.2,29.86,ESE,107,1.0,6.0,91,0.00,,RMK 146.475 MHz QRV !SN!,0.00,WUHU216DAVISVP2,2014-01-20 17:23:00,
2014-01-20 12:28:00,24.6,22.6,29.86,ESE,107,0.0,6.0,92,0.00,,RMK 146.475 MHz QRV !SN!,0.00,WUHU216DAVISVP2,2014-01-20 17:28:00,
2014-01-20 12:33:00,24.5,22.2,29.86,SE,131,0.0,5.0,91,0.00,,RMK 146.475 MHz QRV !SN!,0.00,WUHU216DAVISVP2,2014-01-20 17:33:00,
2014-01-20 12:38:00,24.5,22.5,29.87,SE,134,0.0,5.0,92,0.00,,RMK 146.475 MHz QRV !SN!,0.00,WUHU216DAVISVP2,2014-01-20 17:38:00,
2014-01-20 12:43:00,24.2,22.0,29.87,ESE,117,1.0,6.0,91,0.00,,RMK 146.475 MHz QRV !SN!,0.00,WUHU216DAVISVP2,2014-01-20 17:43:00,
2014-01-20 12:48:00,24.0,21.7,29.87,SSE,165,1.0,6.0,91,0.00,,RMK 146.475 MHz QRV !SN!,0.00,WUHU216DAVISVP2,2014-01-20 17:48:00,
2014-01-20 12:53:00,23.9,21.6,29.87,SSE,148,0.0,6.0,91,0.00,,RMK 146.475 MHz QRV !SN!,0.00,WUHU216DAVISVP2,2014-01-20 17:53:00,
2014-01-20 12:58:00,23.7,21.5,29.87,SSE,155,1.0,6.0,91,0.00,,RMK 146.475 MHz QRV !SN!,0.00,WUHU216DAVISVP2,2014-01-20 17:58:00,
2014-01-20 13:03:00,23.6,21.0,29.88,East,94,1.0,6.0,90,0.00,,RMK 146.475 MHz QRV !SN!,0.00,WUHU216DAVISVP2,2014-01-20 18:03:00,
2014-01-20 13:08:00,23.6,21.0,29.88,SE,146,2.0,7.0,90,0.00,,RMK 146.475 MHz QRV !SN!,0.00,WUHU216DAVISVP2,2014-01-20 18:08:00,
2014-01-20 13:13:00,23.6,21.0,29.88,SSE,149,0.0,7.0,90,0.00,,RMK 146.475 MHz QRV !SN!,0.00,WUHU216DAVISVP2,2014-01-20 18:13:00,
2014-01-20 13:18:00,23.5,20.7,29.88,East,88,2.0,7.0,89,0.00,,RMK 146.475 MHz QRV !SN!,0.00,WUHU216DAVISVP2,2014-01-20 18:18:00,
2014-01-20 13:23:00,23.3,20.0,29.88,SE,140,1.0,7.0,87,0.00,,RMK 146.475 MHz QRV !SN!,0.00,WUHU216DAVISVP2,2014-01-20 18:23:00,
2014-01-20 13:28:00,23.3,20.0,29.88,ESE,122,1.0,7.0,87,0.00,,RMK 146.475 MHz QRV !SN!,0.00,WUHU216DAVISVP2,2014-01-20 18:28:00,
2014-01-20 13:33:00,23.3,19.7,29.88,South,191,2.0,6.0,86,0.00,,RMK 146.475 MHz QRV !SN!,0.00,WUHU216DAVISVP2,2014-01-20 18:33:00,
2014-01-20 13:38:00,23.3,19.4,29.88,East,90,1.0,6.0,85,0.00,,RMK 146.475 MHz QRV !SN!,0.00,WUHU216DAVISVP2,2014-01-20 18:38:00,
2014-01-20 13:43:00,23.4,19.5,29.88,South,174,4.0,6.0,85,0.00,,RMK 146.475 MHz QRV !SN!,0.00,WUHU216DAVISVP2,2014-01-20 18:43:00,
2014-01-20 13:48:00,23.4,19.5,29.89,SE,137,0.0,5.0,85,0.00,,RMK 146.475 MHz QRV !SN!,0.00,WUHU216DAVISVP2,2014-01-20 18:48:00,
2014-01-20 13:53:00,23.4,19.3,29.90,ENE,70,3.0,5.0,84,0.00,,RMK 146.475 MHz QRV !SN!,0.00,WUHU216DAVISVP2,2014-01-20 18:53:00,
2014-01-20 13:58:00,23.3,19.4,29.90,East,88,2.0,6.0,85,0.00,,RMK 146.475 MHz QRV !SN!,0.00,WUHU216DAVISVP2,2014-01-20 18:58:00,
2014-01-20 14:03:00,23.0,19.4,29.91,ESE,122,0.0,6.0,86,0.00,,RMK 146.475 MHz QRV !SN!,0.00,WUHU216DAVISVP2,2014-01-20 19:03:00,
2014-01-20 14:08:00,22.9,19.3,29.91,ENE,70,7.0,7.0,86,0.00,,RMK 146.475 MHz QRV !SN!,0.00,WUHU216DAVISVP2,2014-01-20 19:08:00,
2014-01-20 14:13:00,22.7,19.1,29.91,ESE,110,1.0,8.0,86,0.00,,RMK 146.475 MHz QRV !SN!,0.00,WUHU216DAVISVP2,2014-01-20 19:13:00,
2014-01-20 14:18:00,22.7,19.1,29.91,South,184,1.0,8.0,86,0.00,,RMK 146.475 MHz QRV !SN!,0.00,WUHU216DAVISVP2,2014-01-20 19:18:00,
2014-01-20 14:23:00,22.7,18.8,29.92,ENE,70,4.0,7.0,85,0.00,,RMK 146.475 MHz QRV !SN!,0.00,WUHU216DAVISVP2,2014-01-20 19:23:00,
2014-01-20 14:28:00,22.8,18.9,29.92,ESE,115,0.0,6.0,85,0.00,,RMK 146.475 MHz QRV !SN!,0.00,WUHU216DAVISVP2,2014-01-20 19:28:00,
2014-01-20 14:33:00,22.9,18.8,29.92,ESE,103,0.0,6.0,84,0.00,,RMK 146.475 MHz QRV !SN!,0.00,WUHU216DAVISVP2,2014-01-20 19:33:00,
2014-01-20 14:38:00,22.9,18.5,29.92,SSE,148,1.0,5.0,83,0.00,,RMK 146.475 MHz QRV !SN!,0.00,WUHU216DAVISVP2,2014-01-20 19:38:00,
2014-01-20 14:44:00,22.7,18.3,29.93,SE,143,1.0,6.0,83,0.00,,RMK 146.475 MHz QRV !SN!,0.00,WUHU216DAVISVP2,2014-01-20 19:44:00,
2014-01-20 14:48:00,22.4,17.7,29.93,SE,136,2.0,9.0,82,0.00,,RMK 146.475 MHz QRV !SN!,0.00,WUHU216DAVISVP2,2014-01-20 19:48:00,
2014-01-20 14:53:00,22.2,17.8,29.93,SE,128,1.0,10.0,83,0.00,,RMK 146.475 MHz QRV !SN!,0.00,WUHU216DAVISVP2,2014-01-20 19:53:00,
2014-01-20 14:58:00,22.0,17.6,29.93,SE,128,0.0,10.0,83,0.00,,RMK 146.475 MHz QRV !SN!,0.00,WUHU216DAVISVP2,2014-01-20 19:58:00,
2014-01-20 15:03:00,22.1,18.0,29.93,ENE,76,2.0,9.0,84,0.00,,RMK 146.475 MHz QRV !SN!,0.00,WUHU216DAVISVP2,2014-01-20 20:03:00,
2014-01-20 15:08:00,22.0,17.6,29.94,ESE,117,1.0,9.0,83,0.00,,RMK 146.475 MHz QRV !SN!,0.00,WUHU216DAVISVP2,2014-01-20 20:08:00,
2014-01-20 15:14:00,21.9,17.5,29.94,ESE,108,0.0,7.0,83,0.00,,RMK 146.475 MHz QRV !SN!,0.00,WUHU216DAVISVP2,2014-01-20 20:14:00,
2014-01-20 15:19:00,21.9,17.5,29.94,ESE,117,1.0,6.0,83,0.00,,RMK 146.475 MHz QRV !SN!,0.00,WUHU216DAVISVP2,2014-01-20 20:19:00,
2014-01-20 15:24:00,21.8,17.4,29.95,SSW,201,3.0,6.0,83,0.00,,RMK 146.475 MHz QRV !SN!,0.00,WUHU216DAVISVP2,2014-01-20 20:24:00,
2014-01-20 15:29:00,21.6,17.2,29.95,SE,143,1.0,7.0,83,0.00,,RMK 146.475 MHz QRV !SN!,0.00,WUHU216DAVISVP2,2014-01-20 20:29:00,
2014-01-20 15:34:00,21.6,17.2,29.95,SE,135,0.0,7.0,83,0.00,,RMK 146.475 MHz QRV !SN!,0.00,WUHU216DAVISVP2,2014-01-20 20:34:00,
2014-01-20 15:39:00,21.6,17.2,29.95,SE,134,0.0,7.0,83,0.00,,RMK 146.475 MHz QRV !SN!,0.00,WUHU216DAVISVP2,2014-01-20 20:39:00,
2014-01-20 15:44:00,21.6,17.2,29.95,SE,135,0.0,7.0,83,0.00,,RMK 146.475 MHz QRV !SN!,0.00,WUHU216DAVISVP2,2014-01-20 20:44:00,
2014-01-20 15:49:00,21.5,17.1,29.96,SSE,150,3.0,6.0,83,0.00,,RMK 146.475 MHz QRV !SN!,0.00,WUHU216DAVISVP2,2014-01-20 20:49:00,
2014-01-20 15:54:00,21.4,17.0,29.96,SSE,153,0.0,6.0,83,0.00,,RMK 146.475 MHz QRV !SN!,0.00,WUHU216DAVISVP2,2014-01-20 20:54:00,
2014-01-20 15:59:00,21.4,17.0,29.96,SE,142,2.0,6.0,83,0.00,,RMK 146.475 MHz QRV !SN!,0.00,WUHU216DAVISVP2,2014-01-20 20:59:00,
2014-01-20 16:04:00,21.4,17.3,29.96,ESE,122,0.0,6.0,84,0.00,,RMK 146.475 MHz QRV !SN!,0.00,WUHU216DAVISVP2,2014-01-20 21:04:00,
2014-01-20 16:09:00,21.3,16.9,29.97,SE,146,0.0,4.0,83,0.00,,RMK 146.475 MHz QRV !SN!,0.00,WUHU216DAVISVP2,2014-01-20 21:09:00,
2014-01-20 16:14:00,21.2,16.8,29.97,South,169,1.0,7.0,83,0.00,,RMK 146.475 MHz QRV !SN!,0.00,WUHU216DAVISVP2,2014-01-20 21:14:00,
2014-01-20 16:19:00,21.1,17.0,29.97,SE,139,0.0,7.0,84,0.00,,RMK 146.475 MHz QRV !SN!,0.00,WUHU216DAVISVP2,2014-01-20 21:19:00,
2014-01-20 16:24:00,21.1,17.0,29.97,South,191,2.0,7.0,84,0.00,,RMK 146.475 MHz QRV !SN!,0.00,WUHU216DAVISVP2,2014-01-20 21:24:00,
2014-01-20 16:29:00,20.9,16.5,29.97,South,174,7.0,7.0,83,0.00,,RMK 146.475 MHz QRV !SN!,0.00,WUHU216DAVISVP2,2014-01-20 21:29:00,
2014-01-20 16:34:00,20.8,16.4,29.98,South,188,4.0,7.0,83,0.00,,RMK 146.475 MHz QRV !SN!,0.00,WUHU216DAVISVP2,2014-01-20 21:34:00,
2014-01-20 16:39:00,20.7,16.4,29.98,SSE,150,0.0,7.0,83,0.00,,RMK 146.475 MHz QRV !SN!,0.00,WUHU216DAVISVP2,2014-01-20 21:39:00,
2014-01-20 16:44:00,20.8,16.5,29.98,SSE,148,0.0,8.0,83,0.00,,RMK 146.475 MHz QRV !SN!,0.00,WUHU216DAVISVP2,2014-01-20 21:44:00,
2014-01-20 16:49:00,20.9,16.5,29.98,SE,138,1.0,8.0,83,0.00,,RMK 146.475 MHz QRV !SN!,0.00,WUHU216DAVISVP2,2014-01-20 21:49:00,
2014-01-20 16:54:00,20.8,16.2,29.98,SE,127,1.0,8.0,82,0.00,,RMK 146.475 MHz QRV !SN!,0.00,WUHU216DAVISVP2,2014-01-20 21:54:00,
2014-01-20 16:59:00,20.6,16.0,29.98,SSE,156,1.0,8.0,82,0.00,,RMK 146.475 MHz QRV !SN!,0.00,WUHU216DAVISVP2,2014-01-20 21:59:00,
2014-01-20 17:04:00,20.4,15.5,29.99,South,172,1.0,8.0,81,0.00,,RMK 146.475 MHz QRV !SN!,0.00,WUHU216DAVISVP2,2014-01-20 22:04:00,
2014-01-20 17:09:00,20.3,15.7,29.98,SSE,164,1.0,8.0,82,0.00,,RMK 146.475 MHz QRV !SN!,0.00,WUHU216DAVISVP2,2014-01-20 22:09:00,
2014-01-20 17:14:00,20.3,15.7,29.99,SSW,196,3.0,8.0,82,0.00,,RMK 146.475 MHz QRV !SN!,0.00,WUHU216DAVISVP2,2014-01-20 22:14:00,
2014-01-20 17:19:00,20.2,15.6,29.99,SE,140,0.0,7.0,82,0.00,,RMK 146.475 MHz QRV !SN!,0.00,WUHU216DAVISVP2,2014-01-20 22:19:00,
2014-01-20 17:24:00,20.2,15.3,29.99,South,182,1.0,6.0,81,0.00,,RMK 146.475 MHz QRV !SN!,0.00,WUHU216DAVISVP2,2014-01-20 22:24:00,
2014-01-20 17:29:00,20.1,15.2,29.99,SSE,149,0.0,6.0,81,0.00,,RMK 146.475 MHz QRV !SN!,0.00,WUHU216DAVISVP2,2014-01-20 22:29:00,
2014-01-20 17:34:00,20.1,14.9,30.00,SSE,158,2.0,6.0,80,0.00,,RMK 146.475 MHz QRV !SN!,0.00,WUHU216DAVISVP2,2014-01-20 22:34:00,
2014-01-20 17:39:00,20.0,14.8,30.00,SSE,149,1.0,6.0,80,0.00,,RMK 146.475 MHz QRV !SN!,0.00,WUHU216DAVISVP2,2014-01-20 22:39:00,
2014-01-20 17:44:00,20.0,14.5,30.00,South,179,4.0,6.0,79,0.00,,RMK 146.475 MHz QRV !SN!,0.00,WUHU216DAVISVP2,2014-01-20 22:44:00,
2014-01-20 17:49:00,20.0,14.5,29.99,SSE,155,1.0,8.0,79,0.00,,RMK 146.475 MHz QRV !SN!,0.00,WUHU216DAVISVP2,2014-01-20 22:49:00,
2014-01-20 17:54:00,19.9,14.2,29.99,SSE,150,1.0,8.0,78,0.00,,RMK 146.475 MHz QRV !SN!,0.00,WUHU216DAVISVP2,2014-01-20 22:54:00,
2014-01-20 17:59:00,19.8,14.1,29.99,SSE,155,2.0,8.0,78,0.00,,RMK 146.475 MHz QRV !SN!,0.00,WUHU216DAVISVP2,2014-01-20 22:59:00,
2014-01-20 18:04:00,19.8,14.1,30.00,South,182,0.0,7.0,78,0.00,,RMK 146.475 MHz QRV !SN!,0.00,WUHU216DAVISVP2,2014-01-20 23:04:00,
2014-01-20 18:09:00,19.8,14.0,30.00,SSE,166,1.0,6.0,78,0.00,,RMK 146.475 MHz QRV !SN!,0.00,WUHU216DAVISVP2,2014-01-20 23:09:00,
2014-01-20 18:14:00,19.8,14.3,30.00,South,169,1.0,6.0,79,0.00,,RMK 146.475 MHz QRV !SN!,0.00,WUHU216DAVISVP2,2014-01-20 23:14:00,
2014-01-20 18:19:00,19.7,14.2,30.00,SSW,211,1.0,5.0,79,0.00,,RMK 146.475 MHz QRV !SN!,0.00,WUHU216DAVISVP2,2014-01-20 23:19:00,
2014-01-20 18:24:00,19.7,14.2,30.01,SSE,162,1.0,5.0,79,0.00,,RMK 146.475 MHz QRV !SN!,0.00,WUHU216DAVISVP2,2014-01-20 23:24:00,
2014-01-20 18:29:00,19.7,14.2,30.01,SSE,150,0.0,5.0,79,0.00,,RMK 146.475 MHz QRV !SN!,0.00,WUHU216DAVISVP2,2014-01-20 23:29:00,
2014-01-20 18:34:00,19.7,14.2,30.01,South,179,1.0,5.0,79,0.00,,RMK 146.475 MHz QRV !SN!,0.00,WUHU216DAVISVP2,2014-01-20 23:34:00,
2014-01-20 18:39:00,19.6,14.2,30.01,SE,145,0.0,5.0,79,0.00,,RMK 146.475 MHz QRV !SN!,0.00,WUHU216DAVISVP2,2014-01-20 23:39:00,
2014-01-20 18:44:00,19.6,14.2,30.01,SSE,167,0.0,5.0,79,0.00,,RMK 146.475 MHz QRV !SN!,0.00,WUHU216DAVISVP2,2014-01-20 23:44:00,
2014-01-20 18:49:00,19.6,14.2,30.02,SSE,162,0.0,4.0,79,0.00,,RMK 146.475 MHz QRV !SN!,0.00,WUHU216DAVISVP2,2014-01-20 23:49:00,
2014-01-20 18:54:00,19.6,14.4,30.02,SSE,162,0.0,4.0,80,0.00,,RMK 146.475 MHz QRV !SN!,0.00,WUHU216DAVISVP2,2014-01-20 23:54:00,
2014-01-20 18:59:00,19.6,14.2,30.02,SSE,156,0.0,3.0,79,0.00,,RMK 146.475 MHz QRV !SN!,0.00,WUHU216DAVISVP2,2014-01-20 23:59:00,
2014-01-20 19:04:00,19.6,14.4,30.02,SE,143,0.0,3.0,80,0.00,,RMK 146.475 MHz QRV !SN!,0.00,WUHU216DAVISVP2,2014-01-21 00:04:00,
2014-01-20 19:09:00,19.6,14.4,30.02,SSE,148,1.0,3.0,80,0.00,,RMK 146.475 MHz QRV !SN!,0.00,WUHU216DAVISVP2,2014-01-21 00:09:00,
2014-01-20 19:14:00,19.7,14.5,30.03,SSE,153,0.0,3.0,80,0.00,,RMK 146.475 MHz QRV !SN!,0.00,WUHU216DAVISVP2,2014-01-21 00:14:00,
2014-01-20 19:19:00,19.6,14.4,30.03,South,179,1.0,2.0,80,0.00,,RMK 146.475 MHz QRV !SN!,0.00,WUHU216DAVISVP2,2014-01-21 00:19:00,
2014-01-20 19:24:00,19.6,14.4,30.03,SSE,160,0.0,2.0,80,0.00,,RMK 146.475 MHz QRV !SN!,0.00,WUHU216DAVISVP2,2014-01-21 00:24:00,
2014-01-20 19:29:00,19.6,14.7,30.03,South,183,0.0,2.0,81,0.00,,RMK 146.475 MHz QRV !SN!,0.00,WUHU216DAVISVP2,2014-01-21 00:29:00,
2014-01-20 19:34:00,19.6,14.7,30.03,SE,143,0.0,2.0,81,0.00,,RMK 146.475 MHz QRV !SN!,0.00,WUHU216DAVISVP2,2014-01-21 00:34:00,
2014-01-20 19:39:00,19.5,14.6,30.03,SSE,155,1.0,3.0,81,0.00,,RMK 146.475 MHz QRV !SN!,0.00,WUHU216DAVISVP2,2014-01-21 00:39:00,
2014-01-20 19:44:00,19.4,14.8,30.04,SE,134,0.0,3.0,82,0.00,,RMK 146.475 MHz QRV !SN!,0.00,WUHU216DAVISVP2,2014-01-21 00:44:00,
2014-01-20 19:49:00,19.3,14.7,30.04,South,190,3.0,5.0,82,0.00,,RMK 146.475 MHz QRV !SN!,0.00,WUHU216DAVISVP2,2014-01-21 00:49:00,
2014-01-20 19:54:00,19.3,14.7,30.04,South,174,0.0,5.0,82,0.00,,RMK 146.475 MHz QRV !SN!,0.00,WUHU216DAVISVP2,2014-01-21 00:54:00,
2014-01-20 19:59:00,19.2,14.9,30.03,South,173,0.0,5.0,83,0.00,,RMK 146.475 MHz QRV !SN!,0.00,WUHU216DAVISVP2,2014-01-21 00:59:00,
2014-01-20 20:04:00,19.2,14.9,30.04,SSE,153,0.0,5.0,83,0.00,,RMK 146.475 MHz QRV !SN!,0.00,WUHU216DAVISVP2,2014-01-21 01:04:00,
2014-01-20 20:09:00,19.1,14.8,30.03,SSE,156,0.0,2.0,83,0.00,,RMK 146.475 MHz QRV !SN!,0.00,WUHU216DAVISVP2,2014-01-21 01:09:00,
2014-01-20 20:14:00,19.0,14.7,30.04,SSE,150,1.0,2.0,83,0.00,,RMK 146.475 MHz QRV !SN!,0.00,WUHU216DAVISVP2,2014-01-21 01:14:00,
2014-01-20 20:19:00,19.0,14.9,30.04,SSW,194,1.0,5.0,84,0.00,,RMK 146.475 MHz QRV !SN!,0.00,WUHU216DAVISVP2,2014-01-21 01:19:00,
2014-01-20 20:24:00,18.9,14.8,30.05,SSW,211,2.0,5.0,84,0.00,,RMK 146.475 MHz QRV !SN!,0.00,WUHU216DAVISVP2,2014-01-21 01:24:00,
2014-01-20 20:29:00,18.8,14.7,30.05,SE,145,0.0,5.0,84,0.00,,RMK 146.475 MHz QRV !SN!,0.00,WUHU216DAVISVP2,2014-01-21 01:29:00,
2014-01-20 20:34:00,18.6,14.8,30.05,SSE,155,4.0,5.0,85,0.00,,RMK 146.475 MHz QRV !SN!,0.00,WUHU216DAVISVP2,2014-01-21 01:34:00,
2014-01-20 20:39:00,18.4,14.6,30.04,SSE,158,3.0,5.0,85,0.00,,RMK 146.475 MHz QRV !SN!,0.00,WUHU216DAVISVP2,2014-01-21 01:39:00,
2014-01-20 20:44:00,18.3,14.5,30.04,SSE,154,0.0,5.0,85,0.00,,RMK 146.475 MHz QRV !SN!,0.00,WUHU216DAVISVP2,2014-01-21 01:44:00,
2014-01-20 20:49:00,18.2,14.4,30.04,SSW,194,3.0,6.0,85,0.00,,RMK 146.475 MHz QRV !SN!,0.00,WUHU216DAVISVP2,2014-01-21 01:49:00,
2014-01-20 20:54:00,18.0,14.2,30.04,SSE,163,3.0,7.0,85,0.00,,RMK 146.475 MHz QRV !SN!,0.00,WUHU216DAVISVP2,2014-01-21 01:54:00,
2014-01-20 20:59:00,17.7,13.9,30.05,SSE,150,0.0,7.0,85,0.00,,RMK 146.475 MHz QRV !SN!,0.00,WUHU216DAVISVP2,2014-01-21 01:59:00,
2014-01-20 21:04:00,17.7,14.2,30.05,SSE,156,1.0,7.0,86,0.00,,RMK 146.475 MHz QRV !SN!,0.00,WUHU216DAVISVP2,2014-01-21 02:04:00,
2014-01-20 21:09:00,17.6,14.1,30.04,South,177,0.0,7.0,86,0.00,,RMK 146.475 MHz QRV !SN!,0.00,WUHU216DAVISVP2,2014-01-21 02:09:00,
2014-01-20 21:14:00,17.6,14.1,30.04,SSE,156,0.0,5.0,86,0.00,,RMK 146.475 MHz QRV !SN!,0.00,WUHU216DAVISVP2,2014-01-21 02:14:00,
2014-01-20 21:19:00,17.6,14.1,30.04,SSW,207,1.0,3.0,86,0.00,,RMK 146.475 MHz QRV !SN!,0.00,WUHU216DAVISVP2,2014-01-21 02:19:00,
2014-01-20 21:24:00,17.5,14.0,30.04,South,181,2.0,5.0,86,0.00,,RMK 146.475 MHz QRV !SN!,0.00,WUHU216DAVISVP2,2014-01-21 02:24:00,
2014-01-20 21:29:00,17.3,13.8,30.04,SSE,158,1.0,5.0,86,0.00,,RMK 146.475 MHz QRV !SN!,0.00,WUHU216DAVISVP2,2014-01-21 02:29:00,
2014-01-20 21:34:00,17.3,13.8,30.05,SSE,156,1.0,8.0,86,0.00,,RMK 146.475 MHz QRV !SN!,0.00,WUHU216DAVISVP2,2014-01-21 02:34:00,
2014-01-20 21:39:00,17.1,13.6,30.05,SW,215,2.0,9.0,86,0.00,,RMK 146.475 MHz QRV !SN!,0.00,WUHU216DAVISVP2,2014-01-21 02:39:00,
2014-01-20 21:44:00,17.1,13.6,30.04,SE,145,3.0,9.0,86,0.00,,RMK 146.475 MHz QRV !SN!,0.00,WUHU216DAVISVP2,2014-01-21 02:44:00,
2014-01-20 21:49:00,16.8,13.3,30.05,SSE,149,4.0,9.0,86,0.00,,RMK 146.475 MHz QRV !SN!,0.00,WUHU216DAVISVP2,2014-01-21 02:49:00,
2014-01-20 21:54:00,16.7,12.9,30.05,South,184,2.0,9.0,85,0.00,,RMK 146.475 MHz QRV !SN!,0.00,WUHU216DAVISVP2,2014-01-21 02:54:00,
2014-01-20 21:59:00,16.5,12.7,30.05,SSE,163,0.0,8.0,85,0.00,,RMK 146.475 MHz QRV !SN!,0.00,WUHU216DAVISVP2,2014-01-21 02:59:00,
2014-01-20 22:04:00,16.5,12.7,30.05,SE,145,1.0,6.0,85,0.00,,RMK 146.475 MHz QRV !SN!,0.00,WUHU216DAVISVP2,2014-01-21 03:04:00,
2014-01-20 22:09:00,16.4,12.7,30.06,SW,221,3.0,5.0,85,0.00,,RMK 146.475 MHz QRV !SN!,0.00,WUHU216DAVISVP2,2014-01-21 03:09:00,
2014-01-20 22:14:00,16.3,12.6,30.05,South,188,0.0,5.0,85,0.00,,RMK 146.475 MHz QRV !SN!,0.00,WUHU216DAVISVP2,2014-01-21 03:14:00,
2014-01-20 22:19:00,16.2,12.5,30.05,SSE,168,1.0,5.0,85,0.00,,RMK 146.475 MHz QRV !SN!,0.00,WUHU216DAVISVP2,2014-01-21 03:19:00,
2014-01-20 22:24:00,16.2,12.7,30.05,South,172,2.0,6.0,86,0.00,,RMK 146.475 MHz QRV !SN!,0.00,WUHU216DAVISVP2,2014-01-21 03:24:00,
2014-01-20 22:29:00,16.2,12.7,30.05,SSE,154,0.0,6.0,86,0.00,,RMK 146.475 MHz QRV !SN!,0.00,WUHU216DAVISVP2,2014-01-21 03:29:00,
2014-01-20 22:34:00,16.2,12.7,30.05,SSE,165,1.0,6.0,86,0.00,,RMK 146.475 MHz QRV !SN!,0.00,WUHU216DAVISVP2,2014-01-21 03:34:00,
2014-01-20 22:39:00,16.1,12.9,30.04,South,176,0.0,6.0,87,0.00,,RMK 146.475 MHz QRV !SN!,0.00,WUHU216DAVISVP2,2014-01-21 03:39:00,
2014-01-20 22:40:00,16.1,12.9,30.04,SSE,165,0.0,6.0,87,0.00,,RMK 146.475 MHz QRV !SN!,0.00,WUHU216DAVISVP2,2014-01-21 03:40:00,
2014-01-20 22:45:00,16.2,13.0,30.04,SSE,156,1.0,4.0,87,0.00,,RMK 146.475 MHz QRV !SN!,0.00,WUHU216DAVISVP2,2014-01-21 03:45:00,
2014-01-20 22:50:00,16.2,13.0,30.05,SE,146,1.0,3.0,87,0.00,,RMK 146.475 MHz QRV !SN!,0.00,WUHU216DAVISVP2,2014-01-21 03:50:00,
2014-01-20 22:55:00,16.1,12.9,30.05,SSE,155,0.0,5.0,87,0.00,,RMK 146.475 MHz QRV !SN!,0.00,WUHU216DAVISVP2,2014-01-21 03:55:00,
2014-01-20 23:00:00,16.0,12.8,30.05,SSE,165,0.0,5.0,87,0.00,,RMK 146.475 MHz QRV !SN!,0.00,WUHU216DAVISVP2,2014-01-21 04:00:00,
2014-01-20 23:05:00,16.0,12.8,30.05,South,170,1.0,5.0,87,0.00,,RMK 146.475 MHz QRV !SN!,0.00,WUHU216DAVISVP2,2014-01-21 04:05:00,
2014-01-20 23:10:00,16.0,12.8,30.05,SSE,163,0.0,4.0,87,0.00,,RMK 146.475 MHz QRV !SN!,0.00,WUHU216DAVISVP2,2014-01-21 04:10:00,
2014-01-20 23:15:00,16.0,12.8,30.05,South,179,0.0,4.0,87,0.00,,RMK 146.475 MHz QRV !SN!,0.00,WUHU216DAVISVP2,2014-01-21 04:15:00,
2014-01-20 23:20:00,16.0,13.0,30.05,SSE,148,3.0,4.0,88,0.00,,RMK 146.475 MHz QRV !SN!,0.00,WUHU216DAVISVP2,2014-01-21 04:20:00,
2014-01-20 23:25:00,16.0,13.0,30.05,SE,146,1.0,4.0,88,0.00,,RMK 146.475 MHz QRV !SN!,0.00,WUHU216DAVISVP2,2014-01-21 04:25:00,
2014-01-20 23:30:00,16.0,13.0,30.05,SE,141,1.0,5.0,88,0.00,,RMK 146.475 MHz QRV !SN!,0.00,WUHU216DAVISVP2,2014-01-21 04:30:00,
2014-01-20 23:35:00,15.9,13.0,30.05,SSE,167,1.0,8.0,88,0.00,,RMK 146.475 MHz QRV !SN!,0.00,WUHU216DAVISVP2,2014-01-21 04:35:00,
2014-01-20 23:40:00,15.8,13.1,30.05,SSE,155,4.0,8.0,89,0.00,,RMK 146.475 MHz QRV !SN!,0.00,WUHU216DAVISVP2,2014-01-21 04:40:00,
2014-01-20 23:45:00,15.7,13.0,30.05,SE,139,1.0,8.0,89,0.00,,RMK 146.475 MHz QRV !SN!,0.00,WUHU216DAVISVP2,2014-01-21 04:45:00,
2014-01-20 23:50:00,15.6,12.9,30.05,South,174,0.0,6.0,89,0.00,,RMK 146.475 MHz QRV !SN!,0.00,WUHU216DAVISVP2,2014-01-21 04:50:00,
2014-01-20 23:55:00,15.6,13.2,30.05,South,169,1.0,6.0,90,0.00,,RMK 146.475 MHz QRV !SN!,0.00,WUHU216DAVISVP2,2014-01-21 04:55:00,